When you browse on this site, cookies collect data to enhance your experience and personalize the content and advertising you see.
Visit our Privacy Policy to learn more. By continuing to use the site, you agree to this use of cookies and data.
  • Em Portugal
  • Lista de países
  • Para 7 dias
  • Temperatura da água
  • Mapas de satélite
  • Mapa do tempo
  • Widgets de tempo
  • user-avatar
    Iniciar Sessão

    Previsão horária em Sofia

    Hoje, 22 Abril, Segunda-feira

    Tempo Temperatura Precipitação Vento Pressão Humidade
    00:00 +8°C° 0 mm 1 m/s 713 mmHg 63%
    01:00 +7°C° 0 mm 1 m/s 713 mmHg 63%
    02:00 +7°C° 0 mm 1 m/s 712 mmHg 64%
    03:00 +7°C° 0 mm 1 m/s 712 mmHg 65%
    04:00 +7°C° 0 mm 1 m/s 712 mmHg 65%
    05:00 +6°C° 0 mm 1 m/s 712 mmHg 66%
    06:00 +8°C° 0 mm 1 m/s 712 mmHg 61%
    07:00 +10°C° 0 mm 1 m/s 712 mmHg 57%
    08:00 +12°C° 0 mm 2 m/s 712 mmHg 53%
    09:00 +14°C° 0 mm 2 m/s 713 mmHg 47%
    10:00 +16°C° 0 mm 2 m/s 713 mmHg 41%
    11:00 +18°C° 0 mm 2 m/s 713 mmHg 35%
    12:00 +19°C° 0 mm 2 m/s 713 mmHg 33%
    13:00 +20°C° 0 mm 2 m/s 712 mmHg 31%
    14:00 +20°C° 0 mm 2 m/s 712 mmHg 29%
    15:00 +20°C° 0 mm 2 m/s 712 mmHg 32%
    16:00 +20°C° 0 mm 1 m/s 711 mmHg 35%
    17:00 +19°C° 0 mm 1 m/s 711 mmHg 37%
    18:00 +16°C° 0 mm 2 m/s 711 mmHg 45%
    19:00 +15°C° 0 mm 2 m/s 711 mmHg 52%
    20:00 +12°C° 0 mm 3 m/s 711 mmHg 59%
    21:00 +11°C° 0 mm 3 m/s 711 mmHg 65%
    22:00 +10°C° 0 mm 3 m/s 712 mmHg 72%
    23:00 +10°C° 0 mm 3 m/s 712 mmHg 78%

    Amanhã, 23 Abril, Terça-feira

    Tempo Temperatura Precipitação Vento Pressão Humidade
    00:00 +9°C° 0.2 mm 2 m/s 712 mmHg 81%
    01:00 +9°C° 0.2 mm 2 m/s 712 mmHg 83%
    02:00 +9°C° 0.2 mm 2 m/s 713 mmHg 85%
    03:00 +8°C° 1.2 mm 2 m/s 713 mmHg 87%
    04:00 +8°C° 1.2 mm 2 m/s 713 mmHg 88%
    05:00 +8°C° 1.2 mm 2 m/s 713 mmHg 89%
    06:00 +8°C° 0.7 mm 2 m/s 713 mmHg 87%
    07:00 +8°C° 0.7 mm 2 m/s 713 mmHg 85%
    08:00 +8°C° 0.7 mm 3 m/s 714 mmHg 84%
    09:00 +9°C° 1.3 mm 3 m/s 714 mmHg 81%
    10:00 +10°C° 1.3 mm 3 m/s 714 mmHg 78%
    11:00 +11°C° 1.3 mm 3 m/s 714 mmHg 75%
    12:00 +12°C° 0.2 mm 3 m/s 714 mmHg 73%
    13:00 +13°C° 0.2 mm 4 m/s 713 mmHg 70%
    14:00 +14°C° 0.2 mm 4 m/s 713 mmHg 68%
    15:00 +14°C° 0 mm 4 m/s 713 mmHg 67%
    16:00 +14°C° 0 mm 4 m/s 713 mmHg 67%
    17:00 +14°C° 0 mm 4 m/s 713 mmHg 66%
    18:00 +13°C° 0 mm 4 m/s 713 mmHg 71%
    19:00 +11°C° 0 mm 4 m/s 713 mmHg 76%
    20:00 +10°C° 0 mm 3 m/s 713 mmHg 81%
    21:00 +9°C° 0 mm 3 m/s 713 mmHg 81%
    22:00 +9°C° 0 mm 3 m/s 713 mmHg 82%
    23:00 +9°C° 0 mm 2 m/s 713 mmHg 83%

    Depois de amanhã, 24 Abril, Quarta-feira

    Tempo Temperatura Precipitação Vento Pressão Humidade
    00:00 +8°C° 0 mm 2 m/s 714 mmHg 83%
    01:00 +8°C° 0 mm 2 m/s 714 mmHg 83%
    02:00 +7°C° 0 mm 2 m/s 714 mmHg 83%
    03:00 +7°C° 0 mm 2 m/s 714 mmHg 84%
    04:00 +8°C° 0 mm 1 m/s 714 mmHg 85%
    05:00 +8°C° 0 mm 1 m/s 714 mmHg 86%
    06:00 +9°C° 0 mm 1 m/s 714 mmHg 80%
    07:00 +11°C° 0 mm 1 m/s 715 mmHg 75%
    08:00 +13°C° 0 mm 1 m/s 715 mmHg 69%
    09:00 +15°C° 0 mm 1 m/s 716 mmHg 62%
    10:00 +19°C° 0 mm 1 m/s 716 mmHg 55%
    11:00 +21°C° 0 mm 1 m/s 716 mmHg 48%
    12:00 +22°C° 0 mm 1 m/s 716 mmHg 45%
    13:00 +23°C° 0 mm 2 m/s 716 mmHg 43%
    14:00 +24°C° 0 mm 2 m/s 716 mmHg 41%
    15:00 +23°C° 0 mm 2 m/s 715 mmHg 45%
    16:00 +21°C° 0 mm 2 m/s 715 mmHg 50%
    17:00 +21°C° 0 mm 3 m/s 715 mmHg 54%
    18:00 +18°C° 0 mm 2 m/s 715 mmHg 64%
    19:00 +16°C° 0 mm 2 m/s 715 mmHg 75%
    20:00 +14°C° 0 mm 2 m/s 715 mmHg 85%
    21:00 +14°C° 0 mm 2 m/s 715 mmHg 88%
    22:00 +13°C° 0 mm 2 m/s 715 mmHg 90%
    23:00 +12°C° 0 mm 1 m/s 715 mmHg 92%

    25 Abril, Quinta-feira

    Tempo Temperatura Precipitação Vento Pressão Humidade
    00:00 +12°C° 0 mm 1 m/s 715 mmHg 92%
    01:00 +11°C° 0 mm 1 m/s 715 mmHg 92%
    02:00 +11°C° 0 mm 1 m/s 715 mmHg 92%
    03:00 +11°C° 0 mm 1 m/s 715 mmHg 92%
    04:00 +11°C° 0 mm 1 m/s 715 mmHg 92%
    05:00 +10°C° 0 mm 1 m/s 715 mmHg 91%
    06:00 +12°C° 0 mm 1 m/s 716 mmHg 86%
    07:00 +13°C° 0 mm 1 m/s 716 mmHg 80%
    08:00 +15°C° 0 mm 1 m/s 716 mmHg 74%
    09:00 +18°C° 0 mm 1 m/s 717 mmHg 66%
    10:00 +20°C° 0 mm 1 m/s 717 mmHg 58%
    11:00 +21°C° 0 mm 2 m/s 717 mmHg 50%
    12:00 +23°C° 0 mm 2 m/s 717 mmHg 47%
    13:00 +24°C° 0 mm 2 m/s 716 mmHg 45%
    14:00 +25°C° 0 mm 2 m/s 716 mmHg 43%
    15:00 +24°C° 0.1 mm 2 m/s 716 mmHg 46%
    16:00 +23°C° 0.1 mm 2 m/s 715 mmHg 50%
    17:00 +23°C° 0.1 mm 2 m/s 715 mmHg 54%
    18:00 +20°C° 0.1 mm 2 m/s 715 mmHg 63%
    19:00 +18°C° 0.1 mm 2 m/s 715 mmHg 72%
    20:00 +16°C° 0.1 mm 2 m/s 714 mmHg 82%
    21:00 +15°C° 0.1 mm 2 m/s 715 mmHg 84%
    22:00 +14°C° 0.1 mm 2 m/s 715 mmHg 87%
    23:00 +13°C° 0.1 mm 2 m/s 715 mmHg 90%

    26 Abril, Sexta-feira

    Tempo Temperatura Precipitação Vento Pressão Humidade
    00:00 +13°C° 0 mm 1 m/s 714 mmHg 91%
    01:00 +12°C° 0 mm 1 m/s 714 mmHg 91%
    02:00 +12°C° 0 mm 1 m/s 714 mmHg 92%
    03:00 +12°C° 0 mm 1 m/s 714 mmHg 92%
    04:00 +12°C° 0 mm 1 m/s 714 mmHg 92%
    05:00 +11°C° 0 mm 1 m/s 714 mmHg 92%
    06:00 +13°C° 0 mm 1 m/s 714 mmHg 85%
    07:00 +15°C° 0 mm 1 m/s 714 mmHg 78%
    08:00 +16°C° 0 mm 1 m/s 714 mmHg 72%
    09:00 +19°C° 0 mm 1 m/s 715 mmHg 64%
    10:00 +21°C° 0 mm 1 m/s 715 mmHg 57%
    11:00 +23°C° 0 mm 1 m/s 715 mmHg 49%
    12:00 +24°C° 0 mm 1 m/s 715 mmHg 47%
    13:00 +25°C° 0 mm 1 m/s 714 mmHg 45%
    14:00 +26°C° 0 mm 1 m/s 714 mmHg 43%
    15:00 +25°C° 0.2 mm 2 m/s 713 mmHg 47%
    16:00 +24°C° 0.2 mm 2 m/s 713 mmHg 51%
    17:00 +23°C° 0.2 mm 2 m/s 713 mmHg 54%
    18:00 +20°C° 0.1 mm 2 m/s 712 mmHg 63%
    19:00 +18°C° 0.1 mm 2 m/s 712 mmHg 72%
    20:00 +16°C° 0.1 mm 2 m/s 712 mmHg 81%
    21:00 +16°C° 0 mm 2 m/s 712 mmHg 84%
    22:00 +15°C° 0 mm 2 m/s 712 mmHg 88%
    23:00 +14°C° 0 mm 2 m/s 712 mmHg 91%

    27 Abril, Sábado

    Tempo Temperatura Precipitação Vento Pressão Humidade
    00:00 +13°C° 0 mm 2 m/s 712 mmHg 92%
    01:00 +13°C° 0 mm 2 m/s 711 mmHg 92%
    02:00 +13°C° 0 mm 2 m/s 711 mmHg 93%
    03:00 +12°C° 0 mm 1 m/s 711 mmHg 93%
    04:00 +12°C° 0 mm 1 m/s 711 mmHg 93%
    05:00 +12°C° 0 mm 1 m/s 711 mmHg 93%
    06:00 +13°C° 0 mm 1 m/s 711 mmHg 87%
    07:00 +15°C° 0 mm 1 m/s 711 mmHg 80%
    08:00 +18°C° 0 mm 1 m/s 711 mmHg 74%
    09:00 +20°C° 0 mm 1 m/s 711 mmHg 66%
    10:00 +22°C° 0 mm 1 m/s 711 mmHg 58%
    11:00 +24°C° 0 mm 1 m/s 711 mmHg 50%
    12:00 +24°C° 0.2 mm 1 m/s 711 mmHg 48%
    13:00 +25°C° 0.2 mm 2 m/s 710 mmHg 46%
    14:00 +25°C° 0.2 mm 2 m/s 710 mmHg 45%
    15:00 +24°C° 0.7 mm 2 m/s 709 mmHg 50%
    16:00 +22°C° 0.7 mm 3 m/s 709 mmHg 55%
    17:00 +21°C° 0.7 mm 3 m/s 708 mmHg 60%
    18:00 +20°C° 0.1 mm 3 m/s 708 mmHg 67%
    19:00 +18°C° 0.1 mm 2 m/s 708 mmHg 74%
    20:00 +17°C° 0.1 mm 2 m/s 708 mmHg 81%
    21:00 +16°C° 0.2 mm 2 m/s 708 mmHg 83%
    22:00 +15°C° 0.2 mm 2 m/s 709 mmHg 85%
    23:00 +15°C° 0.2 mm 1 m/s 709 mmHg 86%
    Mostrar mais